Location: Arroyo Garganta de la Yedra
(40.4139°N, 4.4423°W)
Time: 15:27:33
(UTC+00:00)

Daily predictions for brighter satellites

Satellite Brightness Start Highest point End
(mag) Time Altitude Azimuth Time Altitude Azimuth Time Altitude Azimuth
SL-19 R/B 4.3 19:36:55 10° NNE 19:42:32 61° ESE 19:48:01 10° S
SL-16 R/B 2.3 19:38:51 10° NNW 19:44:35 89° ENE 19:50:14 10° SSE
Cosmos 2082 4.0 19:40:15 10° SSW 19:45:51 74° WNW 19:51:29 10° NNE
Cosmos 2221 2.5 19:42:31 10° N 19:46:52 86° E 19:51:10 10° S
Cosmos 371 Rocket 3.3 19:43:36 10° NNW 19:48:30 80° ENE 19:53:22 10° SSE
Cosmos 1842 Rocket 3.5 19:45:52 10° N 19:50:11 66° E 19:54:28 10° SSE
Okean-O 2.7 19:48:43 10° SSE 19:53:05 66° ENE 19:57:29 10° N
IRS-1C Rocket 4.2 19:47:55 10° SSE 19:53:07 65° ENE 19:58:21 10° N
Meteor 2-3 Rocket 3.7 19:48:10 10° S 19:53:47 78° E 19:59:29 10° NNE
CSL-04 Rocket 3.7 19:49:15 10° SSE 19:54:39 72° ENE 20:00:00 10° N
Cosmos 2263 Rocket 2.1 19:50:57 10° SSW 19:56:28 72° ESE 20:02:02 10° NNE
Cosmos 304 Rocket 3.9 19:53:57 10° NNW 19:58:43 63° ENE 20:03:27 10° SSE
USA 186 1.4 19:58:54 10° S 20:01:42 78° W 20:04:22 10° NNW
Cosmos 1844 Rocket 4.2 19:58:50 10° SE 20:01:46 15° E 20:04:41 10° ENE
Meteor 1-26 Rocket 4.3 20:01:38 10° N 20:07:33 69° E 20:13:17 10° SSE
USA 305 2.9 20:05:17 10° SSW 20:09:20 56° SE 20:13:23 10° ENE
H-2A R/B 3.1 20:05:50 10° NE 20:09:28 26° E 20:13:00 10° SSE
USA 307 3.1 20:07:45 10° SSW 20:11:47 47° SE 20:15:49 10° ENE
Cosmos 921 Rocket 3.4 20:07:59 10° S 20:11:58 40° E 20:15:54 10° NNE
Cosmos 2151 2.9 20:08:13 10° S 20:12:27 86° E 20:16:42 10° N
ATLAS 5 CENTAUR R/B 3.4 20:08:53 10° NNW 20:13:39 30° NE 20:18:34 12° ESE
Cosmos 1076 Rocket 3.9 20:12:07 10° SSW 20:16:21 66° W 20:20:34 10° N
CZ-4 R/B 3.9 20:13:33 10° SW 20:16:27 20° W 20:19:22 10° NW
Timation 2 Rocket 4.4 20:10:00 10° SSW 20:16:38 78° WNW 20:23:32 10° NNE
NOSS 2-3 (D) 3.7 20:13:31 10° S 20:17:08 40° ESE 20:21:03 10° NE
Okean O Rocket 4.3 20:14:23 10° SW 20:17:33 19° W 20:20:44 10° NW
Cosmos 1603 4.4 20:12:59 10° N 20:18:18 39° ENE 20:22:27 16° ESE
ERBS 1.8 20:17:11 10° SW 20:20:06 67° SE 20:23:02 10° NE
NOSS 2-3 (C) 3.5 20:16:39 10° SSW 20:20:21 48° ESE 20:24:24 10° NE
CZ-4C R/B 2.0 20:17:00 10° S 20:21:19 49° ESE 20:26:29 10° NE
Cosmos 724 4.4 20:18:51 10° NNW 20:24:50 88° WSW 20:30:18 13° SSE
Landsat 7 3.8 20:20:32 10° SSE 20:25:14 84° ENE 20:29:59 10° N
Hubble Space Telescope 2.9 20:23:36 10° SW 20:25:35 13° S 20:27:12 11° SSE
IGS 5A 4.0 20:22:24 10° S 20:26:28 60° W 20:30:34 10° NNW
NOSS 3-1 (C) 3.3 20:23:36 10° S 20:28:18 44° ESE 20:33:41 10° NE
Cosmos 1184 Rocket 2.6 20:25:51 10° NNW 20:28:48 73° W 20:31:25 12° S
Cosmos 2227 4.2 20:23:37 10° SSW 20:29:22 82° ESE 20:35:09 10° NNE
PSLV R/B 4.3 20:26:04 10° NNE 20:30:02 42° E 20:33:51 10° S
SJ-6B 4.2 20:27:11 10° S 20:31:02 41° W 20:34:53 10° NNW
Resurs 1-3 3.8 20:27:19 10° S 20:31:40 70° WSW 20:36:03 10° NNW
Cosmos 1782 3.3 20:27:55 10° NNW 20:31:48 59° W 20:35:40 10° S
deb Chang Zheng 4 4.1 20:28:36 10° S 20:32:41 54° W 20:36:46 10° NNW
GP-B 4.1 20:33:02 10° N 20:37:18 48° W 20:41:33 10° SSW
Meteor 2-6 Rocket 4.2 20:33:09 10° N 20:38:30 57° ENE 20:42:20 19° SSE
USA 229 DEB 4.5 20:39:00 19° SE 20:41:08 23° ESE 20:46:04 10° ENE
Cosmos 1340 2.6 20:39:49 10° NNW 20:43:34 81° W 20:46:15 18° S
USA 281 3.9 20:37:27 10° S 20:43:52 53° WSW 20:50:20 10° NNW
USA 308 2.7 20:40:13 10° SW 20:44:22 89° SE 20:48:31 10° NE
Cosmos 1400 Rocket 3.8 20:44:19 26° ESE 20:44:57 28° E 20:48:26 10° NNE
CZ-2C R/B 3.6 20:46:58 10° SW 20:48:17 11° SSW 20:49:38 10° S
IRS-1A Rocket 4.2 20:44:30 18° SSE 20:48:49 74° ENE 20:54:22 10° N
Cosmos 1356 Rocket 3.3 20:45:31 10° S 20:49:40 74° E 20:53:55 10° NNE
SPOT 1/Viking Rocket 3.5 20:52:25 19° SSE 20:56:13 87° ENE 21:01:28 10° NNW
USA 306 3.3 20:52:26 10° WSW 20:56:30 60° NW 21:00:35 10° NE
Cosmos 1862 3.8 20:53:18 10° SSW 20:57:15 60° W 21:01:16 10° N
USA 234 3.8 20:52:13 10° ENE 20:57:58 32° SE 21:03:40 10° S
Cosmos 158 Rocket 4.0 20:55:12 10° S 21:00:31 69° ESE 21:05:53 10° NNE
H-2A R/B 4.0 20:57:05 10° SSW 21:01:02 36° W 21:05:09 10° NNW
Okean 3 Rocket 3.9 21:03:05 37° SE 21:04:04 44° E 21:08:17 10° NNE
SeaSat 1 4.3 21:00:20 10° SSW 21:04:22 25° WSW 21:08:26 10° NW
ASTEX 1 3.3 20:59:54 10° N 21:04:49 88° W 21:08:46 16° S
Cosmos 1459 Rocket 4.0 20:58:51 10° N 21:05:04 63° E 21:08:27 28° SSE
NOSS 2-3 (E) 4.1 21:01:45 10° SW 21:05:31 54° NW 21:09:48 10° NNE
Cosmos 1943 3.3 21:00:14 10° NNW 21:05:52 75° WSW 21:09:10 26° SSE
NOSS 3-1 (A) 3.2 21:03:43 13° S 21:07:58 46° ESE 21:13:26 10° NE
Cosmos 1844 3.9 21:07:39 21° S 21:11:16 50° ESE 21:16:49 10° NE
Resurs 01 Rocket 2.2 21:08:54 20° S 21:11:48 54° W 21:16:09 10° NNW
Cosmos 1727 Rocket 4.5 21:07:58 10° SSW 21:14:03 60° W 21:20:10 10° N
Cosmos 1725 Rocket 4.4 21:08:34 10° N 21:14:34 45° ENE 21:16:36 34° ESE
Cosmos 1802 Rocket 4.1 21:08:33 10° N 21:14:56 60° E 21:17:42 34° SE
Cosmos 2123 Rocket 4.1 21:14:45 30° SSE 21:17:50 58° E 21:24:00 10° NNE
Genesis I 4.5 21:17:02 10° SW 21:20:52 43° NW 21:24:46 10° NNE
Cosmos 1408 Rocket 4.4 21:22:09 34° ENE 21:22:09 34° ENE 21:25:34 10° NNE
Cosmos 1515 Rocket 4.5 21:19:53 10° NNE 21:23:35 33° ENE 21:23:35 33° ENE
Cosmos 1151 Rocket 3.3 21:25:18 10° NNW 21:29:32 61° W 21:30:50 40° SSW
CZ-4B R/B 2.2 21:27:41 10° N 21:30:42 44° WNW 21:31:08 41° W
Cosmos 2100 Rocket 4.1 21:25:22 10° N 21:31:34 74° W 21:34:53 29° S
Ariane Rocket 3.4 21:29:48 30° SSW 21:32:08 59° W 21:37:08 10° NNW
ARIANE 5 R/B 4.0 21:33:36 25° ENE 21:33:36 25° ENE 21:36:45 10° NNE
Cosmos 1538 Rocket 3.8 21:32:26 36° S 21:34:37 82° ESE 21:39:49 10° NNE
Meteor 1-10 Rocket 4.4 21:30:37 10° NNW 21:36:08 66° W 21:38:36 33° SSW
SPOT 5 2.8 21:35:38 59° ESE 21:36:19 67° ENE 21:41:19 10° N
Cosmos 1766 Rocket 4.1 21:36:20 31° SW 21:38:13 57° W 21:42:35 10° N
Meteor 1-22 4.5 21:40:44 50° S 21:42:11 81° E 21:47:40 10° NNE
Cosmos 1844 Rocket 2.8 21:39:23 10° SSW 21:44:56 71° WNW 21:50:31 10° NNE
H-2A R/B 4.1 21:41:41 10° N 21:45:18 26° WNW 21:48:51 10° SW
Cosmos 1346 Rocket 3.5 21:42:53 10° N 21:46:01 46° NNE 21:46:01 46° NNE
Cosmos 967 Rocket 4.4 21:40:59 10° NNW 21:47:22 84° ENE 21:48:54 55° SE
ATLAS 5 CENTAUR R/B 2.8 21:52:52 10° NW 21:58:28 55° WSW 22:00:01 45° SSW
Terra 1.8 21:59:01 74° NE 21:59:01 74° NE 22:03:37 10° N
Spot 2 Rocket 3.4 21:59:10 68° SSW 21:59:43 76° WSW 22:04:49 10° NNW
Cosmos 1328 Rocket 4.3 21:57:59 10° NNW 22:02:05 43° W 22:02:24 42° WSW
Cosmos 1500 Rocket 4.4 22:10:33 43° NNE 22:10:33 43° NNE 22:13:34 10° NNE
CZ-4C R/B 4.2 22:06:05 10° W 22:10:08 25° NW 22:14:53 10° NNE
Cosmos 2233 Rocket 3.8 22:04:24 10° N 22:10:45 80° E 22:11:30 69° SE
Helios 1A Rocket 3.7 22:11:45 51° NNW 22:11:45 51° NNW 22:14:54 10° NNW
ERS-1 Rocket 3.2 22:15:12 60° WSW 22:15:20 60° W 22:20:18 10° NNW
Meteor 1-27 Rocket 4.4 22:10:44 10° NNW 22:16:06 48° W 22:17:22 41° SW
Meteor 1-25 Rocket 4.4 22:15:16 54° SW 22:16:21 67° W 22:21:56 10° N
Cosmos 1932 4.5 22:10:42 10° NNW 22:17:12 73° ENE 22:17:54 67° E
Meteor 1-19 Rocket 4.1 22:14:05 10° N 22:19:45 86° W 22:19:45 86° W
CZ-2C R/B 4.2 22:17:04 10° N 22:21:09 57° NW 22:21:09 57° NW
USA 229 DEB 3.9 22:26:08 15° SW 22:31:24 62° NW 22:38:05 10° NNE
USA 229 3.9 22:26:31 17° SW 22:31:30 63° NW 22:38:11 10° NNE
Cosmos 2098 Rocket 4.2 22:40:13 60° ENE 22:40:13 60° ENE 22:46:28 10° NNE
Cosmos 1833 Rocket 3.6 22:35:08 10° N 22:39:56 39° NE 22:39:56 39° NE
USA 234 3.4 22:34:44 10° NE 22:41:14 70° NW 22:47:44 10° WSW
Cosmos 2056 Rocket 4.4 22:42:24 10° N 22:46:13 42° NNE 22:46:13 42° NNE
Cosmos 1464 Rocket 4.3 22:45:14 10° N 22:50:46 54° NE 22:50:46 54° NE
Cosmos 2082 Rocket 3.9 22:49:49 10° N 22:54:07 22° NE 22:54:07 22° NE
Cosmos 2278 Rocket 3.3 23:09:01 37° NE 23:09:01 37° NE 23:12:22 10° NNE
BREEZE-M DEB (TANK) 4.4 23:01:09 10° WSW 23:13:46 69° WSW 23:13:46 69° WSW
ADEOS Rocket 3.4 23:24:07 74° ENE 23:24:07 74° ENE 23:30:52 10° N
Cosmos 1943 Rocket 4.0 23:42:53 22° NE 23:42:53 22° NE 23:45:01 10° NE
